Regional Weather Roundup
Issued by NWS

Home | Current Version | Previous Version | Text Only | Print | Product List | Glossary On
Versions: 1 2 3 4 5 6 7 8 9 10 11 12 13 14 15 16 17 18 19 20 21 22 23 24 25 26 27 28 29 30 31 32 33 34 35 36 37 38 39 40 41 42 43 44 45 46 47 48 49 50
000
ASUS43 KMPX 171010
RWRMN
WEATHER ROUNDUP FOR MINNESOTA
NATIONAL WEATHER SERVICE TWIN CITIES/CHANHASSEN MN
500 AM CDT WED SEP 17 2014


NOTE: "FAIR" INDICATES FEW OR NO CLOUDS BELOW 12,000 FEET WITH NO
SIGNIFICANT WEATHER AND/OR OBSTRUCTIONS TO VISIBILITY. N/A MEANS
CURRENT SKY AND/OR WEATHER CONDITIONS ARE NOT AVAILABLE.

MNZ060>063-068>070-171100-
   Twin Cities Metro

CITY           SKY/WX    TMP DP  RH WIND       PRES   REMARKS
TWIN CITIES    CLOUDY    58  47  66 SW5       29.95F
ST PAUL        CLOUDY    54  49  83 SE5       29.96F
CRYSTAL        CLOUDY    57  48  72 S6        29.93F
BLAINE         CLOUDY    55  52  88 S3        29.94F
LAKEVILLE      CLOUDY    54  48  82 CALM      29.96F
EDEN PRAIRIE   CLOUDY    57  48  72 S6        29.94F
SOUTH ST PAUL  CLOUDY    55  49  80 CALM      29.96S
LAKE ELMO      CLOUDY    52  48  87 CALM      29.97S
$$
MNZ001>005-007-008-013>017-022>024-027-028-171100-
   Northwest Minnesota

CITY           SKY/WX    TMP DP  RH WIND       PRES   REMARKS
BEMIDJI        CLEAR     42  39  90 CALM      29.90F
HALLOCK        PTCLDY    46  43  87 CALM      29.90F
ROSEAU         MOCLDY    45  39  81 S3        29.91S
WARROAD        CLOUDY    48  45  87 CALM      29.91F
THIEF RVR FALL PTCLDY    46  43  87 CALM      29.90S
CROOKSTON      PTCLDY    43  41  93 CALM      29.90F
FOSSTON        CLEAR     45  41  87 CALM      29.91S
DETROIT LAKES  CLEAR     50  46  87 CALM      29.92S
MOORHEAD       CLEAR     52  50  93 S3        29.90S
PARK RAPIDS    CLEAR     44  41  89 CALM      29.91F
MAHNOMEN       FAIR      47  44  88 SE3       29.90S
$$
MNZ006-009>011-018-025>026-171100-
   North Central Minnesota

CITY           SKY/WX    TMP DP  RH WIND       PRES   REMARKS
BAUDETTE       MOCLDY    50  45  83 W6        29.90F
FLAG ISLAND    CLOUDY    52  46  82 NE12      29.91R
INTL FALLS     CLOUDY    50  45  83 SW5       29.89F
WASKISH        PTCLDY    50  46  87 NW5       29.93R
BIG FORK       PTCLDY    43  39  87 CALM      29.91S
LONGVILLE      CLEAR     39  39 100 CALM      29.91F
GRAND RAPIDS   PTCLDY    52  41  66 SW3       29.92S
CRANE LAKE     CLOUDY    54  45  71 SW3       29.92R
ORR            MOCLDY    52  43  71 CALM      29.88S
COOK           MOCLDY    48  43  81 SW3       29.90F
WALKER         FAIR      47  42  83 CALM      29.91S
$$
MNZ012-019>021-037-171100-
   Northeast Minnesota

CITY           SKY/WX    TMP DP  RH WIND       PRES   REMARKS
DULUTH         PTCLDY    48  41  76 W5        29.92F
ELY            CLOUDY    50  45  81 S5        29.89F
HIBBING        PTCLDY    38  36  92 CALM      29.91F
EVELETH        PTCLDY    45  41  87 W3        29.92S
DULUTH HARBOR  CLEAR     50  46  87 SW6       29.93F
TWO HARBORS    CLEAR     43  37  81 W3        29.91S
SILVER BAY     PTCLDY    41  41 100 CALM      29.91S
GRAND MARAIS     N/A     48  43  82 CALM      29.91S
G MARAIS ARPRT CLOUDY    43  39  87 CALM      29.90S
$$
MNZ029>031-032-039>041-046>048-054>057-064-171100-
   West Central Minnesota

CITY           SKY/WX    TMP DP  RH WIND       PRES   REMARKS
FERGUS FALLS   CLEAR     52  46  82 SE5       29.91S
WHEATON        CLEAR     43  43 100 E3        29.92S
MORRIS         CLEAR     48  46  93 SE6       29.90S
ALEXANDRIA     PTCLDY    50  47  89 S3        29.93S
ELBOW LAKE     FAIR      51  48  89 SE3       29.91S
WADENA         CLEAR     41  41 100 CALM      29.91F
GLENWOOD       CLEAR     46  46 100 S5        29.93R
APPLETON       CLEAR     52  48  87 CALM      29.90F
BENSON         CLEAR     50  48  93 S5        29.91F
ORTONVILLE     CLEAR     50  46  87 SE5       29.90S
MADISON        CLEAR     52  50  93 CALM      29.91S
WILLMAR        FAIR      54  48  82 SE5       29.94F
$$
MNZ033>034-036-042>043-049>051-058-059-171100-
   Central Minnesota

CITY           SKY/WX    TMP DP  RH WIND       PRES   REMARKS
ST CLOUD       CLEAR     50  47  89 CALM      29.93F
SAUK CENTRE    FAIR      45  43  93 CALM      29.93S
PAYNESVILLE    CLEAR     46  46  99 CALM      29.93S
AITKIN         HAZE      43  37  81 CALM      29.91S VSB 1/4
PINE RIVER     CLEAR     39  37  93 CALM      29.95F
BRAINERD       CLEAR     44  43  96 CALM      29.92F
STAPLES        CLEAR     41  39  93 CALM      29.91F
LONG PRAIRIE   FAIR      45  45 100 CALM      29.93S
LITTLE FALLS   PTCLDY    43  41  93 CALM      29.93S
LITCHFIELD     MOCLDY    55  52  88 CALM      29.93F
BUFFALO        PTCLDY    55  48  78 CALM      29.95F
MAPLE LAKE     PTCLDY    54  51  89 S3        29.94F
$$
MNZ037-044-045-052-053-171100-
   East Central Minnesota

CITY           SKY/WX    TMP DP  RH WIND       PRES   REMARKS
PRINCETON      CLOUDY    50  48  93 CALM      29.94F
MORA           CLEAR     39  37  93 CALM      29.96S FOG
CAMBRIDGE      PTCLDY    52  43  71 CALM      29.92F
RUSH CITY      MOCLDY    45  43  94 CALM      29.94F
MOOSE LAKE     CLEAR     37  36  93 CALM      29.92S
HINCKLEY       PTSUNNY   43  43 100 CALM      29.94S
CLOQUET        CLEAR     43  41  93 SW3       29.93S
MCGREGOR       CLEAR     41  39  93 CALM      29.93S
$$
MNZ071>073-080-081-089-090-097-098-171100-
   Southwest Minnesota

CITY           SKY/WX    TMP DP  RH WIND       PRES   REMARKS
MONTEVIDEO     CLEAR     54  48  82 CALM      29.92S
GRANITE FALLS  PTCLDY    50  49  97 S3        29.93S
CANBY          CLEAR     56  49  77 SW10G16   29.91S
MARSHALL       CLEAR     54  46  76 S6        29.90F
REDWOOD FALLS  CLOUDY    55  51  86 S6        29.92F
OLIVIA         PTCLDY    54  50  87 SE3       29.92S
PIPESTONE      CLEAR     52  48  87 S3        29.92F
WINDOM         FAIR      54  48  82 CALM      29.95S
WORTHINGTON    CLEAR     52  46  82 S5        29.95F
JACKSON        PTCLDY    52  46  82 S6        29.95F
TRACY          CLEAR     55  50  81 S10       29.92F
SLAYTON        CLEAR     51  48  90 CALM      29.94S
$$
MNZ065>067-074>077-082>085-091>093-171100-
   South Central Minnesota

CITY           SKY/WX    TMP DP  RH WIND       PRES   REMARKS
MANKATO        MOCLDY    52  45  76 S6        29.96F
NEW ULM        CLOUDY    55  52  88 S6        29.94F
ST JAMES       CLOUDY    55  50  82 S5        29.95F
FAIRMONT       MOCLDY    52  45  76 S5        29.96F
GLENCOE        CLOUDY    57  48  73 CALM      29.94S
FARIBAULT      MOCLDY    55  46  71 S3        29.97S
OWATONNA       CLOUDY    54  46  76 S5        29.97F
WASECA         MOCLDY    50  45  81 S3        29.98F
ALBERT LEA     CLOUDY    54  48  82 S6        29.97F
$$
MNZ078>079-086>088-094>096-171100-
   Southeast Minnesota

CITY           SKY/WX    TMP DP  RH WIND       PRES   REMARKS
ROCHESTER      CLOUDY    49  46  90 S6        29.99F
RED WING       CLOUDY    54  48  82 CALM      29.96S
STANTON        CLOUDY    55  48  79 CALM      29.96S
DODGE CENTER   MOCLDY    52  46  82 S7        29.98S
WINONA         CLOUDY    48  48 100 CALM      29.99F
AUSTIN         CLOUDY    48  45  87 S3        29.98F
PRESTON        MOCLDY    48  47  95 SW3       30.00F
$$
ABBREVIATIONS USED IN REMARKS
   TC - TEMPERATURES IN CELSIUS
  WCI - WIND CHILL INDEX
   HX - HEAT INDEX
  VSB - VISIBILITY
$$



USA.gov is the U.S. government's official web portal to all federal, state and local government web resources and services.